CAPE
12 7 9 8 8 13 9 4 6 9 4 3 2 2 1 1 0 0 0 0 1 0 0 0 0 1 0 0 0 0 0 340 3 0 0 0 0 0 0 0 0 0 0 0 1 10 0
13 13 15 8 12 13 8 5 3 3 5 3 3 6 5 4 4 3 3 2 1 0 0 0 0 1 0 0 0 0 0 0 0 0 0 0 0 0 0 0 0 10 12 13 0 41 3
16 15 14 11 9 10 11 10 7 4 2 4 8 5 4 4 3 3 1 1 0 0 0 0 1 0 0 0 0 0 0 0 0 0 0 0 0 0 0 0 0 0 1 52 12 51 33
18 27 21 20 18 14 8 5 4 6 6 5 6 5 2 1 1 1 0 0 0 0 0 0 1 0 0 0 0 0 0 0 0 0 0 0 0 0 0 0 0 0 0 0 2 0 10
16 17 17 20 19 19 22 22 19 17 14 10 7 4 2 0 0 0 0 0 0 0 0 0 0 0 0 0 0 0 0 0 0 0 0 0 0 0 0 0 0 0 0 0 5 0 1
26 29 27 24 16 21 21 13 11 7 5 3 2 2 3 1 0 0 0 0 0 0 0 0 0 0 0 0 0 0 0 0 0 0 0 0 0 0 0 0 0 0 0 0 2 7 31
38 42 29 17 20 12 18 10 3 7 8 9 10 5 2 1 0 0 0 0 0 0 0 0 0 0 0 0 0 0 0 0 0 0 0 0 0 0 0 0 0 0 0 0 2 22 20
43 43 37 25 23 20 15 3 1 0 1 4 7 6 4 0 0 0 0 0 0 0 0 0 0 0 0 0 0 0 0 0 0 0 0 0 0 0 0 0 0 0 0 0 33 12 16
54 44 34 26 17 15 15 10 1 0 0 1 2 1 1 0 0 0 0 0 0 0 0 0 0 0 0 0 0 0 0 0 0 0 0 0 0 0 0 0 0 0 0 0 29 9 0
44 32 27 25 22 18 21 16 2 0 1 3 3 0 0 0 0 0 0 0 0 0 0 0 0 0 0 0 0 0 0 0 0 0 0 0 0 0 0 0 0 0 0 0 1 0 1
37 34 35 28 24 21 23 16 5 5 5 4 4 0 0 0 0 0 0 0 0 0 0 0 0 0 0 0 0 0 0 0 0 0 0 0 0 0 0 0 0 0 0 0 0 17 15
44 42 37 34 37 35 26 0 2 5 1 2 1 0 0 0 0 0 0 0 0 0 0 0 0 0 0 0 0 0 0 0 0 0 0 0 0 0 0 0 0 0 0 0 0 0 11
39 39 28 31 43 36 26 10 10 2 0 0 0 0 0 0 0 0 0 0 0 0 0 0 0 0 0 0 0 0 0 0 0 0 0 0 0 0 0 0 0 0 0 0 0 0 0
30 31 28 36 43 46 29 26 16 0 0 0 0 0 0 0 0 0 0 0 0 0 0 0 0 0 0 0 0 0 0 0 0 0 0 0 0 0 0 0 0 0 0 0 0 0 0
43 38 32 40 38 38 38 39 26 1 0 0 0 0 0 0 0 0 0 0 0 0 0 0 0 0 0 0 0 0 0 0 0 0 0 0 0 0 0 0 0 0 0 0 0 0 0
39 45 50 47 48 47 50 49 45 35 0 0 0 0 0 0 0 0 0 0 0 0 0 0 0 0 0 0 0 0 0 0 0 0 0 0 0 0 0 0 0 0 0 0 0 0 0
44 46 44 44 46 45 46 48 48 49 0 0 0 3 0 0 0 0 0 0 0 0 0 0 0 0 0 0 0 0 0 0 0 0 0 0 0 0 0 0 0 0 0 0 0 0 0
52 49 54 58 57 64 69 67 54 41 0 0 0 1 0 0 0 4 0 0 0 0 0 0 0 0 0 0 0 0 0 0 0 0 0 0 0 0 0 0 0 0 0 0 0 0 0
47 45 44 55 64 73 83 83 76 46 42 3 1 0 0 0 0 0 0 1 0 0 0 0 0 0 0 0 0 0 0 0 0 0 0 0 0 0 0 0 0 0 0 0 0 0 0
38 37 40 45 58 79 99 132 111 93 59 22 28 4 0 0 4 19 10 29 26 7 0 0 0 0 0 0 0 0 0 0 0 0 0 37 0 0 0 0 0 0 0 0 0 0 0
8 7 42 66 73 74 94 166 171 136 59 51 86 11 3 4 0 0 21 7 0 0 0 0 0 0 0 1 0 0 0 0 0 0 0 0 0 0 0 0 0 0 0 0 0 0 0
41 46 37 67 58 86 112 133 228 159 64 64 53 29 2 0 0 0 0 2 5 0 16 0 0 1 2 4 0 0 0 0 0 0 0 0 0 0 0 0 0 0 0 0 0 0 0
28 36 37 36 62 57 81 130 177 159 18 37 97 103 67 7 1 0 0 1 3 5 0 0 0 5 0 0 0 0 0 0 0 0 0 0 0 0 0 0 0 0 0 0 0 0 0
52 65 46 47 52 48 45 82 150 175 62 28 40 108 42 8 10 5 0 0 13 14 17 0 2 4 0 0 0 0 0 0 0 0 0 0 0 0 0 0 1 0 0 0 0 0 0
65 91 28 36 34 37 53 55 113 200 171 61 59 43 18 17 6 0 0 6 6 17 7 0 12 17 0 1 0 0 0 0 0 0 0 0 0 0 1 0 0 0 0 0 0 0 0
65 85 68 37 45 25 41 68 129 243 233 188 183 80 38 17 2 1 13 0 0 13 27 33 9 30 80 0 8 0 0 0 0 0 0 0 0 0 5 0 0 0 0 0 0 1 239
59 88 107 47 40 46 66 96 102 128 186 201 214 156 41 7 0 1 4 4 0 18 14 6 59 0 1 58 12 3 0 0 0 0 0 0 0 1 12 0 0 0 0 0 9 44 863
62 89 96 84 63 67 57 68 74 58 50 182 135 262 107 4 0 0 0 2 2 2 1 29 0 18 0 149 6 35 2 0 0 0 0 49 5 3 1 33 5 359 58 820 1309 908 957
59 80 78 76 72 50 54 55 47 57 58 64 159 321 187 37 14 1 0 0 0 5 7 2 39 6 24 90 29 13 33 31 19 52 23 44 56 56 99 85 556 518 721 637 761 976 804
CIN
0 0 0 0 0 0 0 0 0 0 0 0 0 0 0 0 0 0 0 0 0 0 0 0 0 0 0 0 0 0 0 -492 -228 0 0 0 0 0 0 0 0 0 0 0 -55 -146 0
0 0 0 0 0 0 0 0 0 0 0 0 0 0 0 0 0 0 0 0 0 0 0 0 0 0 0 0 0 0 0 0 0 0 0 0 0 0 0 0 0 -97 -154 -30 0 -179 -34
0 0 0 0 0 0 0 0 0 0 0 0 0 0 0 0 0 0 0 0 0 0 0 0 0 0 0 0 0 0 0 0 0 0 0 0 0 0 0 0 0 0 -4 -30 -13 -42 -40
0 0 0 0 0 0 0 0 0 0 0 0 0 0 0 0 0 0 0 0 0 0 0 0 0 0 0 0 0 0 0 0 0 0 0 0 0 0 0 0 0 0 0 0 0 0 -33
0 0 0 0 0 0 0 0 0 0 0 0 0 0 0 0 0 0 0 0 0 0 0 0 0 0 0 0 0 0 0 0 0 0 0 0 0 0 0 0 0 0 0 0 -36 0 -8
0 0 0 0 0 0 0 0 0 0 0 0 0 0 0 0 0 0 0 0 0 0 0 0 0 0 0 0 0 0 0 0 0 0 0 0 0 0 0 0 0 0 0 0 -11 -49 -92
0 0 0 0 0 0 0 0 0 0 0 0 0 0 0 0 0 0 0 0 0 0 0 0 0 0 0 0 0 0 0 0 0 0 0 0 0 0 0 0 0 0 0 0 -9 -67 -162
0 0 0 0 0 0 0 0 0 0 0 0 0 0 0 0 0 0 0 0 0 0 0 0 0 0 0 0 0 0 0 0 0 0 0 0 0 0 0 0 0 0 0 0 -86 -73 -46
0 0 0 0 0 0 0 0 0 0 0 0 0 0 0 0 0 0 0 0 0 0 0 0 0 0 0 0 0 0 0 0 0 0 0 0 0 0 0 0 0 0 0 0 -61 -42 -17
0 0 0 0 0 0 0 0 0 0 0 0 0 0 0 0 0 0 0 0 0 0 0 0 0 0 0 0 0 0 0 0 0 0 0 0 0 0 0 0 0 0 0 0 -39 0 -25
0 0 0 0 0 0 0 0 0 0 0 0 0 0 0 0 0 0 0 0 0 0 0 0 0 0 0 0 0 0 0 0 0 0 0 0 0 0 0 0 0 0 0 0 0 -34 -48
0 0 0 0 0 0 0 0 0 0 0 0 0 0 0 0 0 0 0 0 0 0 0 0 0 0 0 0 0 0 0 0 0 0 0 0 0 0 0 0 0 0 0 0 0 0 -77
0 0 0 0 0 0 0 0 0 0 0 0 0 0 0 0 0 0 0 0 0 0 0 0 0 0 0 0 0 0 0 0 0 0 0 0 0 0 0 0 0 0 0 0 0 0 0
0 0 0 0 0 0 0 0 0 0 0 0 0 0 0 0 0 0 0 0 0 0 0 0 0 0 0 0 0 0 0 0 0 0 0 0 0 0 0 0 0 0 0 0 0 0 0
0 0 0 0 0 0 0 0 0 0 0 0 0 0 0 0 0 0 0 0 0 0 0 0 0 0 0 0 0 0 0 0 0 0 0 0 0 0 0 0 0 0 0 0 0 0 0
0 0 0 0 0 0 0 0 0 0 0 0 0 0 0 0 0 0 0 0 0 0 0 0 0 0 0 0 0 0 0 0 0 0 0 0 0 0 0 0 0 0 0 0 0 0 0
0 0 0 0 0 0 0 0 0 -1 0 0 0 -1 0 0 0 0 0 0 0 0 0 0 0 0 0 0 0 0 0 0 0 0 0 0 0 0 0 0 0 0 0 0 0 0 0
0 0 0 0 0 0 0 0 -1 -3 0 0 0 0 0 0 0 -2 0 0 0 0 0 0 0 0 0 0 0 0 0 0 0 0 0 0 0 0 0 0 0 0 0 0 0 0 0
0 0 0 0 0 0 0 0 -1 -5 -5 0 0 0 0 0 0 0 0 0 0 0 -1 0 0 0 0 0 0 0 0 0 0 0 0 0 0 0 0 0 0 0 0 0 0 0 0
0 0 0 0 0 0 -4 0 -6 -8 -8 -3 0 0 0 0 -15 -15 -40 -21 -17 -47 0 -2 0 0 0 0 0 0 0 0 0 0 0 -225 0 0 0 0 0 0 0 0 0 0 0
0 0 0 0 0 0 0 0 -4 -18 -9 -2 -1 0 -1 0 0 0 -2 0 -2 0 0 0 0 0 0 0 0 0 0 0 0 0 0 0 0 0 0 0 0 0 0 0 0 0 0
0 0 0 0 0 0 0 0 0 -12 -11 0 0 0 -1 0 0 0 0 0 -6 0 -2 0 0 0 0 0 0 0 0 0 0 0 0 0 0 0 0 0 0 0 0 0 0 0 0
0 0 0 0 0 0 0 0 0 -9 -19 -1 -4 -6 -1 -2 -2 0 0 -1 -1 -11 -6 0 0 0 0 0 0 0 0 0 0 0 0 0 0 0 0 0 0 0 0 0 0 0 0
0 0 0 0 0 0 0 0 0 -4 -9 -9 -3 0 0 0 0 0 0 0 -15 -11 0 0 -36 -9 0 0 0 0 0 0 0 0 0 0 0 0 0 -11 -10 0 0 0 0 0 0
0 0 0 0 0 0 0 0 0 -1 -9 -4 -2 0 0 0 0 0 0 0 0 -10 0 0 -9 -10 0 0 0 0 0 0 0 0 0 0 0 0 -10 0 0 0 0 0 0 0 0
0 0 0 0 0 0 0 0 0 -1 -6 -8 0 -10 0 0 0 0 -1 0 0 -1 -7 -8 -53 -55 -28 0 -3 0 0 0 0 0 0 0 0 0 -33 0 0 0 0 0 0 -42 -74
0 0 0 0 0 0 0 0 0 0 -5 -6 -2 -9 0 -1 0 0 0 0 0 -4 -2 -3 -28 0 -18 -2 -45 0 0 0 0 0 0 0 -9 -2 -7 0 0 0 0 0 -47 -23 -126
0 0 0 0 0 0 0 0 0 0 0 -1 -1 -7 0 -2 -1 0 0 0 0 0 -1 -7 0 -1 -38 -1 -9 0 0 0 0 0 0 -43 -58 -13 -1 -8 0 -80 -32 -44 -94 -125 -146
0 0 0 0 0 0 0 0 0 0 0 -1 0 -4 -8 0 -1 -1 0 0 0 -32 -2 0 -3 -9 0 -4 0 0 0 -7 -1 -15 -22 -14 -19 -39 -97 -41 -138 -200 -143 -204 -111 -121 -124
Wind_Speed
18 19 20 20 20 19 20 22 22 21 23 24 25 25 26 27 27 27 26 25 24 24 24 21 17 15 8 5 16 5 5 5 7 6 13 13 13 13 13 9 10 6 8 9 19 20 12
17 17 18 20 19 19 20 22 22 22 22 24 24 24 25 26 27 27 28 27 25 24 25 20 15 8 4 11 11 13 13 8 10 10 11 14 13 12 10 14 13 11 11 12 11 16 11
17 17 17 18 18 18 19 20 21 22 22 23 23 24 25 26 27 28 28 29 28 26 24 19 11 6 7 24 6 7 12 10 9 11 11 14 17 12 7 14 16 6 10 13 17 12 16
16 16 18 17 17 17 18 19 20 20 21 21 22 24 26 28 28 29 29 29 31 30 23 16 7 6 12 10 17 19 12 15 13 10 11 11 12 12 7 10 15 15 9 8 10 10 15
17 17 17 18 18 18 18 19 20 20 21 22 23 24 26 29 30 29 31 33 34 23 10 6 6 6 13 10 9 15 12 16 12 10 13 15 9 10 8 8 8 8 10 10 3 3 5
16 17 17 18 18 18 18 19 19 20 21 22 23 25 26 28 32 31 32 35 21 4 4 9 9 3 9 12 9 13 14 15 10 8 10 10 6 10 10 7 12 10 8 11 8 10 7
16 17 17 18 17 17 17 18 18 19 20 21 22 25 28 29 32 31 21 10 5 1 6 9 9 9 19 9 5 13 14 15 12 7 11 10 8 16 13 15 13 15 15 13 5 11 9
17 17 18 18 18 18 19 19 20 22 22 22 23 24 26 31 33 34 12 4 13 8 14 16 26 27 27 17 13 17 18 13 12 14 10 10 19 13 14 12 18 21 18 19 12 7 10
18 18 18 18 19 20 19 19 21 22 23 25 25 25 26 30 37 15 11 12 13 14 8 16 26 18 22 17 23 15 17 17 15 17 19 18 9 18 18 19 19 23 20 15 10 5 8
17 18 18 18 19 19 19 19 20 21 22 23 24 26 25 29 11 11 9 19 19 12 6 11 10 12 14 13 12 25 20 16 12 19 18 16 18 19 22 22 18 20 20 21 15 15 9
18 18 18 19 19 20 19 19 20 22 23 23 23 24 24 15 10 8 10 18 20 8 7 7 8 6 11 22 10 22 20 19 19 18 12 19 19 21 20 24 19 23 13 18 18 7 13
18 18 18 19 19 19 18 20 21 22 23 24 25 25 25 10 6 16 16 19 9 2 12 9 9 8 12 20 15 5 22 15 11 16 18 17 13 20 19 15 20 15 15 20 15 6 4
17 17 18 19 18 17 17 19 20 21 22 23 27 26 19 11 7 6 12 7 2 9 9 9 6 12 18 12 22 17 22 23 18 19 18 20 23 16 22 17 17 20 14 12 10 10 6
17 17 19 19 19 17 18 19 20 20 21 20 24 30 13 11 9 13 4 3 12 9 15 18 16 10 17 14 20 24 23 23 25 18 8 14 17 22 15 25 15 19 18 13 10 12 9
18 18 18 18 18 19 19 19 18 19 21 20 26 8 10 9 13 8 6 11 7 9 8 18 20 11 14 18 15 20 23 21 25 23 20 15 20 9 23 17 20 9 21 14 6 10 6
18 18 18 18 18 18 19 18 18 19 20 20 9 8 12 12 11 8 10 17 9 14 25 16 11 10 10 15 15 18 20 17 22 27 23 16 7 21 18 22 17 18 6 14 12 16 17
19 19 19 19 18 18 17 17 17 17 18 22 5 6 13 13 9 10 16 13 17 21 25 14 14 24 24 24 19 23 15 22 23 25 26 25 20 18 19 19 22 8 17 10 8 14 9
19 19 19 19 19 18 18 17 16 14 14 10 5 6 12 14 10 7 12 17 22 24 24 25 20 26 26 25 27 26 23 21 16 26 25 25 17 18 24 15 23 24 15 11 10 5 5
20 20 20 20 19 20 19 18 14 11 10 6 6 9 12 8 6 10 14 21 23 21 17 16 23 24 22 25 27 15 23 26 23 22 26 16 20 12 15 17 19 24 20 15 13 6 16
20 21 21 21 20 20 19 17 15 9 8 4 5 6 7 7 4 13 11 13 14 16 16 16 18 21 20 24 17 17 24 21 17 19 15 8 20 29 20 18 5 8 22 19 19 17 9
22 23 22 21 20 20 19 18 16 11 5 2 3 5 11 9 11 17 4 7 19 11 13 15 11 18 18 12 16 10 13 17 20 20 16 4 15 21 27 16 16 25 14 26 25 20 18
22 21 22 22 22 21 20 18 17 13 2 3 3 5 6 11 13 18 14 11 17 14 9 11 13 22 14 9 18 21 19 15 12 16 17 11 11 11 10 20 27 22 19 23 26 24 21
23 23 23 23 22 20 20 17 16 13 6 3 3 4 4 5 10 13 12 17 18 15 10 9 13 13 22 18 11 18 18 19 19 22 20 10 5 5 10 8 4 12 29 22 13 18 20
22 23 23 22 20 18 18 17 16 13 8 3 4 2 3 6 9 13 21 22 15 17 13 14 10 11 19 16 14 16 17 20 19 21 17 18 15 10 6 8 11 5 10 18 15 11 10
22 20 21 20 18 17 16 16 16 14 10 5 3 3 3 5 9 16 18 18 14 17 15 16 14 12 15 12 5 10 9 14 20 19 18 16 11 8 7 9 3 7 9 4 7 13 8
20 20 20 20 17 16 16 16 16 15 13 4 5 4 3 2 9 18 16 17 15 10 12 13 14 12 8 4 2 2 5 8 8 8 13 15 12 10 3 8 20 4 5 11 6 7 3
20 19 19 18 17 16 16 15 12 12 10 2 3 6 2 4 8 13 12 11 12 10 9 10 7 10 5 3 3 2 3 6 8 9 6 4 5 13 3 4 3 3 10 12 7 8 5
20 19 16 16 16 16 16 14 12 10 9 3 5 4 5 4 12 14 20 17 12 10 10 7 6 6 6 4 3 4 5 5 6 10 6 4 6 8 6 4 5 3 3 3 4 6 6
18 18 17 16 17 17 16 14 13 13 11 7 4 2 2 5 6 17 20 20 19 21 12 10 5 4 3 5 3 5 4 2 5 5 7 2 0 6 6 3 3 7 7 0 1 7 5
Wind_Direction
5 4 2 1 0 358 357 357 354 352 351 348 345 342 339 335 332 328 324 320 316 315 314 313 312 316 316 224 246 227 155 130 146 179 225 234 240 243 243 231 162 220 259 201 232 247 283
1 359 359 358 355 354 354 353 351 349 345 343 339 337 335 332 329 325 322 318 314 311 310 307 307 306 240 249 253 233 174 157 193 186 213 223 236 235 254 256 176 199 214 296 248 229 195
355 354 353 354 352 350 348 348 347 344 341 338 334 333 331 329 326 323 319 316 311 307 301 296 292 238 250 236 260 93 178 184 205 196 219 221 240 260 254 268 271 232 197 242 267 185 136
352 350 349 348 347 345 343 343 342 339 337 334 333 329 328 324 322 320 317 313 307 299 288 278 243 227 251 250 240 253 237 221 208 217 213 231 232 254 264 295 298 283 271 259 218 184 145
348 347 347 345 342 339 337 336 336 336 334 333 332 329 326 322 320 320 318 313 303 295 267 206 172 241 265 261 220 239 203 233 197 208 216 220 225 225 255 254 290 277 258 255 132 113 166
339 339 339 339 338 336 335 336 335 334 333 332 330 328 326 323 318 321 320 310 288 289 183 183 265 287 250 251 215 206 204 225 199 214 241 231 215 231 223 204 226 244 245 255 180 205 104
333 330 332 332 332 334 334 333 333 331 330 329 328 327 326 322 317 320 330 338 319 54 230 227 191 239 297 250 275 194 189 200 213 210 216 220 211 227 221 215 235 253 250 260 182 128 94
327 327 327 327 328 329 329 330 329 330 331 331 331 331 327 322 318 315 301 263 297 297 290 250 251 249 254 259 284 225 175 185 203 209 209 217 225 226 240 227 228 250 258 262 26 163 116
326 326 326 326 327 325 323 325 327 327 329 331 332 333 330 325 314 305 316 271 279 337 277 274 234 236 224 223 245 237 172 185 196 212 219 217 223 214 227 236 219 237 244 257 154 289 303
330 328 327 327 326 327 325 319 322 324 325 326 328 329 332 336 324 341 293 343 338 314 286 270 203 240 213 205 242 236 198 191 218 211 225 225 222 220 217 235 224 232 235 250 172 189 189
329 328 326 326 326 327 326 320 319 321 323 323 323 324 325 329 288 295 315 324 309 310 298 242 193 149 156 175 140 225 223 193 207 211 193 225 207 224 220 222 226 237 241 247 251 157 177
328 330 329 327 326 325 327 325 324 324 323 322 319 321 324 318 296 256 295 302 291 263 245 269 144 160 139 201 232 288 204 222 197 219 236 231 227 224 233 226 222 241 237 255 260 210 204
331 331 329 327 322 321 324 323 323 321 321 320 316 317 308 280 242 317 338 308 205 230 269 230 176 168 186 174 212 227 192 216 211 203 221 236 236 228 222 227 217 216 231 240 252 245 209
330 330 329 326 322 319 320 320 320 316 316 318 313 312 281 240 233 248 274 277 237 239 228 299 317 258 199 207 202 215 223 209 220 225 197 222 237 229 220 218 218 212 216 225 222 230 249
325 325 326 325 325 321 320 319 317 315 317 323 314 306 284 250 235 213 238 225 208 207 279 359 334 314 253 206 213 201 220 214 207 209 220 206 236 229 228 237 212 230 214 224 253 255 256
325 324 324 323 322 323 322 322 320 319 320 324 318 296 257 258 236 182 230 236 249 297 324 342 316 287 317 328 318 206 207 216 209 205 216 242 245 225 243 224 239 212 201 216 228 234 248
324 322 321 320 319 319 321 322 324 324 321 313 274 292 270 277 251 213 228 238 259 274 284 286 285 287 290 293 290 289 279 218 212 200 207 220 242 259 226 212 214 217 221 228 195 219 227
324 323 320 318 317 316 316 318 325 329 327 312 300 288 288 344 305 233 247 257 263 264 268 276 277 284 283 289 289 281 270 274 262 203 205 205 221 239 250 263 205 215 206 196 217 289 248
325 325 323 322 320 318 316 316 320 330 337 315 296 287 273 258 261 266 273 263 262 273 305 315 301 283 273 268 282 266 286 284 279 297 207 199 212 222 251 260 253 213 211 206 220 181 234
326 323 322 321 318 316 314 311 305 312 321 303 296 303 296 346 284 311 320 313 331 327 308 311 318 317 319 272 278 289 296 284 282 281 296 287 205 213 221 235 241 224 207 201 198 223 225
322 320 317 315 314 315 312 308 305 293 298 279 260 273 319 305 329 326 211 275 286 311 319 357 319 332 350 319 320 315 345 337 320 322 324 237 247 210 214 211 221 240 236 205 210 208 210
317 315 314 313 312 310 310 309 311 296 283 239 278 305 339 305 306 311 303 294 351 325 323 304 303 326 313 289 296 317 329 324 293 330 343 334 284 178 194 206 221 242 240 240 214 214 229
315 314 313 311 308 305 305 308 306 302 136 265 233 272 264 281 302 303 304 321 325 338 302 312 320 307 305 300 273 265 281 272 262 279 292 281 340 282 205 156 237 263 236 245 251 218 206
320 316 313 312 312 309 305 305 302 298 193 175 274 296 268 277 290 299 308 307 320 318 288 307 303 267 273 292 277 279 258 260 255 258 251 263 283 273 151 125 210 230 202 224 239 261 224
332 334 333 324 320 316 310 305 305 297 273 219 220 224 255 278 287 287 293 309 309 300 303 308 318 315 302 296 315 315 276 273 271 253 252 239 259 275 159 196 303 285 271 225 205 255 243
332 331 335 339 331 325 319 313 310 304 286 251 226 205 225 282 256 273 312 305 294 318 307 318 308 308 280 259 318 35 298 353 299 303 205 243 246 246 167 184 219 105 255 270 323 276 354
337 333 336 336 338 335 330 327 321 331 330 251 247 207 206 239 262 263 263 297 316 300 283 306 336 322 317 270 163 194 236 316 272 291 300 256 265 245 160 202 269 194 221 276 249 249 48
337 339 337 345 342 337 336 332 329 328 329 316 276 254 222 215 265 257 266 270 276 274 285 332 338 6 288 204 260 184 209 230 288 271 315 64 10 266 204 160 236 57 338 62 214 86 50
333 338 341 339 339 337 332 328 325 320 316 322 272 294 288 255 274 294 278 274 271 267 283 284 256 171 293 293 352 329 237 171 309 270 74 119 266 298 329 161 309 23 119 69 72 84 65